Ouarzazate, Morocco

7:23 AM WET on December 14, 2017 (GMT +0000)
Ouarzazate

Weather History for GMMZ - September, 2012

Change the Weather History Date:

Saturday, September 22, 2012

  Actual Average Record
Temperature  
Mean Temperature 78 °F -  
Max Temperature 95 °F 83 °F - ()
Min Temperature 62 °F 56 °F - ()
Cooling Degree Days 14    
Growing Degree Days 28 (Base 50)    
Moisture  
Dew Point 26 °F    
Average Humidity 12    
Maximum Humidity 24    
Minimum Humidity 4    
Precipitation  
Precipitation 0.00 in 0.02 in - ()
Sea Level Pressure  
Sea Level Pressure 30.15 in    
Wind  
Wind Speed 3 mph ()    
Max Wind Speed 12 mph    
Max Gust Speed 20 mph    
Visibility 8.6 miles    
Events      
T = Trace of Precipitation, MM = Missing Value Source: Averaged Metar Reports

Daily Weather History Graph

Daily Weather History Graph

Search for Another Location

Airport or City:

Trip Planner

Search our weather history database for the weather conditions in past years. The results will help you decide how hot, cold, wet, or windy it might be!

Date:

Astronomy

Sep. 22, 2012 Rise Set
Actual Time 7:16 AM WEST 7:23 PM WEST
Civil Twilight 6:51 AM WEST 7:47 PM WEST
Nautical Twilight 6:23 AM WEST 8:16 PM WEST
Astronomical Twilight 5:55 AM WEST 8:44 PM WEST
Moon 1:58 PM WEST (9/22) No Moon Set
Length of Visible Light 12h 56m
Length of Day
12h 07m
Waxing Crescent, 46% of the Moon is Illuminated
Sep 22
Waxing Crescent
Sep 22
First Quarter
Sep 30
Full
Oct 8
Last Quarter
Oct 15
New

Hourly Weather History & Observations

Time (WEST) Temp. Dew Point Humidity Pressure Visibility Wind Dir Wind Speed Gust Speed Precip Events Conditions
12:00 AM 80.6 °F 24.8 °F 13% 30.15 in - SE 2.3 mph - N/A   Clear
1:00 AM 76 °F 26 °F 8%  in 12 mi Calm Calm - -  
1:00 AM 75.2 °F 26.6 °F 17% 30.15 in - Calm Calm - N/A   Clear
3:00 AM 71.6 °F 23.0 °F 16% 30.15 in - Calm Calm - N/A   Clear
4:00 AM 71 °F 24 °F 9%  in 12 mi West 2.3 mph - -  
5:00 AM 64.4 °F 24.8 °F 22% 30.15 in - Calm Calm - N/A   Clear
6:00 AM 64.4 °F 24.8 °F 22% 30.15 in - Calm Calm - N/A   Clear
7:00 AM 65 °F 23 °F 10%  in 12 mi Calm Calm - -  
7:00 AM 64.4 °F 23.0 °F 21% 30.15 in - Calm Calm - N/A   Clear
8:00 AM 62.6 °F 24.8 °F 24% 30.18 in - WNW 3.5 mph - N/A   Clear
9:00 AM 69.8 °F 24.8 °F 18% 30.18 in - Calm Calm - N/A   Clear
10:00 AM 76 °F 27 °F 8%  in 12 mi Calm Calm - -  
10:00 AM 75.2 °F 26.6 °F 17% 30.21 in - Calm Calm - N/A   Clear
11:00 AM 80.6 °F 28.4 °F 15% 30.21 in - Calm Calm - N/A   Clear
12:00 PM 86.0 °F 30.2 °F 13% 30.21 in 6.2 mi Variable 1.2 mph - N/A   Partly Cloudy
1:00 PM 89 °F 28 °F 5%  in 12 mi ENE 3.5 mph - -   Scattered Clouds
1:00 PM 89.6 °F 28.4 °F 11% 30.18 in 6.2 mi Variable 3.5 mph - N/A   Partly Cloudy
2:00 PM 91.4 °F 28.4 °F 10% 30.12 in 6.2 mi Variable 3.5 mph - N/A   Scattered Clouds
3:00 PM 95.0 °F 26.6 °F 9% 30.12 in 6.2 mi Variable 8.1 mph 19.6 mph N/A   Scattered Clouds
4:00 PM 94 °F 27 °F 4%  in 12 mi SW 10.4 mph - -   Partly Cloudy
5:00 PM 93.2 °F 23.0 °F 8% 30.09 in 6.2 mi SSW 11.5 mph - N/A   Mostly Cloudy
6:00 PM 95.0 °F 24.8 °F 8% 30.09 in 6.2 mi SSW 6.9 mph - N/A   Mostly Cloudy
7:00 PM 92 °F 25 °F 4%  in 12 mi South 11.5 mph - -   Partly Cloudy
7:00 PM 91.4 °F 24.8 °F 9% 30.09 in 6.2 mi South 11.5 mph - N/A   Scattered Clouds
8:00 PM 91.4 °F 26.6 °F 10% 30.09 in 6.2 mi SSE 5.8 mph - N/A   Scattered Clouds
9:00 PM 89.6 °F 26.6 °F 10% 30.12 in 6.2 mi SW 5.8 mph - N/A   Scattered Clouds
10:00 PM 86 °F 30 °F 6%  in 12 mi NNW 10.4 mph - -   Partly Cloudy
10:00 PM 86.0 °F 30.2 °F 13% 30.15 in 6.2 mi NNW 10.4 mph - N/A   Scattered Clouds
11:00 PM 84.2 °F 28.4 °F 13% 30.15 in 6.2 mi WNW 9.2 mph - N/A   Partly Cloudy